Regional Weather Roundup
Issued by NWS

Home | Current Version | Previous Version | Graphics & Text | Print | Product List | Glossary On
Versions: 1 2 3 4 5 6 7 8 9 10 11 12 13 14 15 16 17 18 19 20 21 22 23 24 25 26 27 28 29 30 31 32 33 34 35 36 37 38 39 40 41 42 43 44 45 46 47 48 49 50
402
ASUS45 KBOI 190510
RWRID

IDAHO REGIONAL WEATHER ROUNDUP
NATIONAL WEATHER SERVICE BOISE ID
1000 PM MST THU JAN 18 2018

NOTE: "FAIR" INDICATES FEW OR NO CLOUDS BELOW 12000 FEET
WITH NO SIGNIFICANT WEATHER AND/OR OBSTRUCTIONS TO VISIBILITY

IDZ012-014-190600-
SOUTHWEST IDAHO


CITY           SKY/WX    TMP DP  RH WIND       PRES   REMARKS
BOISE          LGT RAIN  39  37  92 N5        29.84F
CALDWELL       LGT RAIN  41  39  93 CALM      29.86
MOUNTAIN HOME  LGT RAIN  40  40 100 NW14      29.81F WCI  32
$$

IDZ016-017-190600-
SOUTHCENTRAL IDAHO


CITY           SKY/WX    TMP DP  RH WIND       PRES   REMARKS
BURLEY         CLOUDY    50  31  48 SW26G39   29.72F
JEROME         CLOUDY    37  35  92 SW14      29.78S WCI  28
TWIN FALLS     MOCLDY    37  36  96 SW21G29   29.80R WCI  26
$$

IDZ019>023-190600-
SOUTHEAST IDAHO


CITY           SKY/WX    TMP DP  RH WIND       PRES   REMARKS
IDAHO FALLS    CLOUDY    43  32  65 SW12      29.79F
POCATELLO      CLOUDY    52  30  43 S33G45    29.75F
REXBURG        CLOUDY    40  33  76 SW5       29.78F
$$

IDZ006-010-011-018-031-032-190600-
CENTRAL IDAHO MOUNTAINS


CITY           SKY/WX    TMP DP  RH WIND       PRES   REMARKS
MCCALL         LGT SNOW  33  32  96 S9        29.74S FOG     WCI  25
HAILEY         CLOUDY    36  32  87 NW6       29.78F WCI  31
STANLEY          N/A     34  31  88 VRB3      29.77F
SALMON         LGT RAIN  36  34  92 W7        29.76F WCI  30
CHALLIS        LGT RAIN  41  34  76 N7        29.69R
$$

IDZ002-004-006-007-026-190600-
NORTHERN IDAHO


CITY           SKY/WX    TMP DP  RH WIND       PRES   REMARKS
LEWISTON       LGT RAIN  39  38  96 NE5       29.82F
LOWELL           N/A     35  35 100 CALM      29.86F
COEUR D`ALENE  CLOUDY    36  33  89 CALM      29.78S
MULLAN PASS    LGT SNOW  25  25 100 CALM      29.68F VSB 3/4
$$




USA.gov is the U.S. government's official web portal to all federal, state and local government web resources and services.